| time (UTC) | temp C | wind direction | speed KPH | gust KPH | rain 1hr cm | rain 24hr cm | rain mn cm | humidity % | barometer mb |
| 20260504110647 | 0 | 269 | 0.0 | 3.2 | 0.00 | 0.00 | 0.00 | 95 | 1014.3 |
| 20260504110143 | 0 | 73 | 3.2 | 3.2 | 0.00 | 0.00 | 0.00 | 95 | 1014.1 |
| 20260504100609 | 0 | 313 | 0.0 | 4.8 | 0.00 | 0.00 | 0.00 | 94 | 1014.0 |
| 20260504100107 | 0 | 330 | 3.2 | 4.8 | 0.00 | 0.00 | 0.00 | 95 | 1013.9 |
| 20260504082003 | 0 | 235 | 0.0 | 3.2 | 0.00 | 0.00 | 0.00 | 92 | 1014.0 |
| 20260504081500 | 0 | 299 | 0.0 | 1.6 | 0.00 | 0.00 | 0.00 | 92 | 1014.0 |
| 20260504080955 | 0 | 243 | 0.0 | 3.2 | 0.00 | 0.00 | 0.00 | 92 | 1014.0 |
| 20260504080452 | 0 | 273 | 1.6 | 1.6 | 0.00 | 0.00 | 0.00 | 92 | 1014.0 |
| 20260504050305 | 1 | 315 | 0.0 | 0.0 | 0.00 | 0.00 | 0.00 | 86 | 1013.5 |
| 20260504045803 | 1 | 284 | 3.2 | 3.2 | 0.00 | 0.00 | 0.00 | 85 | 1013.4 |
| 20260504045304 | 1 | 304 | 0.0 | 1.6 | 0.00 | 0.00 | 0.00 | 85 | 1013.3 |
| 20260504044800 | 1 | 291 | 0.0 | 1.6 | 0.00 | 0.00 | 0.00 | 84 | 1013.3 |
| 20260504044257 | 1 | 311 | 0.0 | 1.6 | 0.00 | 0.00 | 0.00 | 84 | 1013.4 |
| 20260504043754 | 1 | 286 | 1.6 | 3.2 | 0.00 | 0.00 | 0.00 | 84 | 1013.4 |
| 20260504043251 | 1 | 341 | 1.6 | 3.2 | 0.00 | 0.00 | 0.00 | 84 | 1013.2 |
| 20260504042749 | 2 | 11 | 0.0 | 1.6 | 0.00 | 0.00 | 0.00 | 84 | 1013.3 |
| 20260504042245 | 1 | 332 | 3.2 | 4.8 | 0.00 | 0.00 | 0.00 | 83 | 1013.3 |
| 20260504041742 | 2 | 3 | 0.0 | 3.2 | 0.00 | 0.00 | 0.00 | 85 | 1013.1 |
| 20260504041238 | 2 | 89 | 0.0 | 0.0 | 0.00 | 0.00 | 0.00 | 84 | 1013.1 |
| 20260504040734 | 2 | 60 | 0.0 | 0.0 | 0.00 | 0.00 | 0.00 | 85 | 1013.1 |
| 20260504040232 | 2 | 13 | 0.0 | 1.6 | 0.00 | 0.00 | 0.00 | 86 | 1012.9 |
| 20260504035727 | 2 | 4 | 0.0 | 1.6 | 0.00 | 0.00 | 0.00 | 86 | 1012.9 |
| 20260504035225 | 2 | 35 | 1.6 | 1.6 | 0.00 | 0.00 | 0.00 | 85 | 1012.9 |
| 20260504034722 | 2 | 304 | 0.0 | 0.0 | 0.00 | 0.00 | 0.00 | 85 | 1013.0 |
| 20260504034219 | 2 | 8 | 0.0 | 1.6 | 0.00 | 0.00 | 0.00 | 84 | 1012.9 |
| 20260504033717 | 2 | 339 | 0.0 | 0.0 | 0.00 | 0.00 | 0.00 | 84 | 1012.9 |
| 20260504033214 | 2 | 53 | 0.0 | 1.6 | 0.00 | 0.00 | 0.00 | 84 | 1013.0 |
| 20260504032711 | 2 | 25 | 0.0 | 1.6 | 0.00 | 0.00 | 0.00 | 83 | 1012.9 |
| 20260504032208 | 2 | 19 | 0.0 | 3.2 | 0.00 | 0.00 | 0.00 | 83 | 1012.9 |
| 20260504031705 | 2 | 34 | 0.0 | 1.6 | 0.00 | 0.00 | 0.00 | 82 | 1013.1 |
| 20260504031202 | 2 | 52 | 3.2 | 3.2 | 0.00 | 0.00 | 0.00 | 82 | 1013.0 |
| 20260504030658 | 2 | 38 | 0.0 | 0.0 | 0.00 | 0.00 | 0.00 | 81 | 1013.0 |
| 20260504030155 | 2 | 131 | 0.0 | 3.2 | 0.00 | 0.00 | 0.00 | 81 | 1012.9 |
| 20260504025652 | 2 | 66 | 0.0 | 0.0 | 0.00 | 0.00 | 0.00 | 80 | 1013.0 |
| 20260504025148 | 2 | 38 | 0.0 | 0.0 | 0.00 | 0.00 | 0.00 | 80 | 1012.9 |
| 20260504024646 | 2 | 48 | 0.0 | 1.6 | 0.00 | 0.00 | 0.00 | 81 | 1013.2 |
| 20260504024142 | 2 | 326 | 0.0 | 0.0 | 0.00 | 0.00 | 0.00 | 80 | 1013.1 |
| 20260504023639 | 2 | 76 | 0.0 | 0.0 | 0.00 | 0.00 | 0.00 | 80 | 1013.2 |
| 20260504023135 | 2 | 76 | 0.0 | 0.0 | 0.00 | 0.00 | 0.00 | 80 | 1013.1 |
| 20260504022632 | 2 | 10 | 1.6 | 1.6 | 0.00 | 0.00 | 0.00 | 80 | 1013.2 |
| 20260504022127 | 2 | 80 | 0.0 | 0.0 | 0.00 | 0.00 | 0.00 | 79 | 1013.1 |
| 20260504021626 | 2 | 80 | 0.0 | 0.0 | 0.00 | 0.00 | 0.00 | 78 | 1013.0 |
| 20260504021121 | 2 | 32 | 0.0 | 1.6 | 0.00 | 0.00 | 0.00 | 78 | 1013.1 |
| 20260504020619 | 3 | 55 | 0.0 | 1.6 | 0.00 | 0.00 | 0.00 | 76 | 1013.1 |
| 20260504020115 | 3 | 76 | 0.0 | 0.0 | 0.00 | 0.00 | 0.00 | 76 | 1013.1 |
| 20260504015611 | 3 | 48 | 0.0 | 0.0 | 0.00 | 0.00 | 0.00 | 75 | 1013.1 |
| 20260504015108 | 3 | 49 | 0.0 | 0.0 | 0.00 | 0.00 | 0.00 | 74 | 1013.0 |
| 20260504014604 | 3 | 49 | 0.0 | 0.0 | 0.00 | 0.00 | 0.00 | 73 | 1013.1 |
| 20260504014101 | 3 | 66 | 0.0 | 0.0 | 0.00 | 0.00 | 0.00 | 73 | 1013.0 |
| 20260504013559 | 3 | 315 | 0.0 | 0.0 | 0.00 | 0.00 | 0.00 | 72 | 1012.9 |
| 20260504013055 | 4 | 345 | 0.0 | 0.0 | 0.00 | 0.00 | 0.00 | 72 | 1012.8 |
| 20260504012553 | 4 | 43 | 0.0 | 0.0 | 0.00 | 0.00 | 0.00 | 72 | 1012.8 |
| 20260504012050 | 5 | 19 | 0.0 | 0.0 | 0.00 | 0.00 | 0.00 | 71 | 1012.8 |
| 20260504011547 | 5 | 89 | 0.0 | 1.6 | 0.00 | 0.00 | 0.00 | 69 | 1012.9 |
| 20260504011043 | 5 | 63 | 0.0 | 0.0 | 0.00 | 0.00 | 0.00 | 69 | 1012.9 |
| 20260504010539 | 5 | 191 | 0.0 | 1.6 | 0.00 | 0.00 | 0.00 | 68 | 1012.7 |
| 20260504010036 | 5 | 32 | 0.0 | 0.0 | 0.00 | 0.00 | 0.00 | 66 | 1012.7 |
| 20260504005532 | 6 | 44 | 0.0 | 0.0 | 0.00 | 0.00 | 0.00 | 64 | 1012.8 |
| 20260504005030 | 6 | 329 | 0.0 | 0.0 | 0.00 | 0.00 | 0.00 | 64 | 1012.7 |
| 20260504004527 | 6 | 89 | 0.0 | 0.0 | 0.00 | 0.00 | 0.00 | 63 | 1012.6 |
| 20260504004024 | 6 | 89 | 0.0 | 0.0 | 0.00 | 0.00 | 0.00 | 62 | 1012.5 |
| 20260504003520 | 7 | 76 | 0.0 | 1.6 | 0.00 | 0.00 | 0.00 | 61 | 1012.3 |
| 20260504003017 | 7 | 120 | 0.0 | 1.6 | 0.00 | 0.00 | 0.00 | 59 | 1012.2 |
| 20260504002514 | 7 | 224 | 0.0 | 1.6 | 0.00 | 0.00 | 0.00 | 63 | 1012.4 |
| 20260504002011 | 7 | 243 | 0.0 | 0.0 | 0.00 | 0.00 | 0.00 | 61 | 1012.3 |
| 20260504001509 | 8 | 76 | 0.0 | 0.0 | 0.00 | 0.00 | 0.00 | 55 | 1012.1 |
| 20260504001005 | 8 | 353 | 0.0 | 0.0 | 0.00 | 0.00 | 0.00 | 52 | 1012.2 |
| 20260504000502 | 9 | 233 | 0.0 | 0.0 | 0.00 | 0.00 | 0.00 | 51 | 1012.0 |
| 20260503235959 | 10 | 355 | 1.6 | 4.8 | 0.00 | 0.00 | 0.00 | 50 | 1012.1 |
| 20260503235457 | 10 | 299 | 0.0 | 3.2 | 0.00 | 0.00 | 0.00 | 50 | 1012.0 |
| 20260503234954 | 10 | 297 | 3.2 | 4.8 | 0.00 | 0.00 | 0.00 | 47 | 1012.0 |
| 20260503234452 | 10 | 298 | 0.0 | 4.8 | 0.00 | 0.00 | 0.00 | 51 | 1012.0 |
| 20260503233950 | 10 | 281 | 4.8 | 4.8 | 0.00 | 0.00 | 0.00 | 46 | 1011.9 |
| 20260503233446 | 10 | 257 | 4.8 | 9.7 | 0.00 | 0.00 | 0.00 | 45 | 1012.0 |
| 20260503232942 | 11 | 243 | 4.8 | 9.7 | 0.00 | 0.00 | 0.00 | 44 | 1012.1 |
| 20260503232439 | 11 | 213 | 3.2 | 6.4 | 0.00 | 0.00 | 0.00 | 44 | 1012.1 |
| 20260503231937 | 11 | 240 | 6.4 | 11.3 | 0.00 | 0.00 | 0.00 | 42 | 1011.9 |
| 20260503231435 | 11 | 250 | 4.8 | 6.4 | 0.00 | 0.00 | 0.00 | 42 | 1012.0 |
| 20260503230931 | 11 | 249 | 9.7 | 16.1 | 0.00 | 0.00 | 0.00 | 43 | 1011.9 |
| 20260503230427 | 11 | 271 | 6.4 | 11.3 | 0.00 | 0.00 | 0.00 | 41 | 1011.9 |
| 20260503225925 | 11 | 263 | 14.5 | 17.7 | 0.00 | 0.00 | 0.00 | 40 | 1011.9 |
| 20260503225422 | 12 | 277 | 4.8 | 6.4 | 0.00 | 0.00 | 0.00 | 41 | 1011.9 |
| 20260503224917 | 12 | 246 | 9.7 | 16.1 | 0.00 | 0.00 | 0.00 | 40 | 1011.6 |
| 20260503224415 | 12 | 264 | 4.8 | 8.0 | 0.00 | 0.00 | 0.00 | 41 | 1011.7 |
| 20260503223912 | 11 | 264 | 6.4 | 11.3 | 0.00 | 0.00 | 0.00 | 39 | 1011.8 |
| 20260503223410 | 11 | 234 | 11.3 | 12.9 | 0.00 | 0.00 | 0.00 | 41 | 1011.6 |
| 20260503222910 | 11 | 263 | 6.4 | 8.0 | 0.00 | 0.00 | 0.00 | 40 | 1011.7 |
| 20260503222409 | 11 | 274 | 3.2 | 8.0 | 0.00 | 0.00 | 0.00 | 42 | 1011.5 |
| 20260503221907 | 12 | 239 | 8.0 | 11.3 | 0.00 | 0.00 | 0.00 | 39 | 1011.4 |
| 20260503221406 | 12 | 249 | 11.3 | 14.5 | 0.00 | 0.00 | 0.00 | 37 | 1011.3 |
| 20260503220901 | 12 | 262 | 12.9 | 20.9 | 0.00 | 0.00 | 0.00 | 37 | 1011.4 |
| 20260503220358 | 12 | 263 | 8.0 | 16.1 | 0.00 | 0.00 | 0.00 | 36 | 1011.2 |
| 20260503215855 | 12 | 229 | 6.4 | 14.5 | 0.00 | 0.00 | 0.00 | 36 | 1011.2 |
| 20260503215352 | 12 | 319 | 6.4 | 12.9 | 0.00 | 0.00 | 0.00 | 36 | 1011.2 |
| 20260503214849 | 12 | 253 | 4.8 | 17.7 | 0.00 | 0.00 | 0.00 | 36 | 1011.3 |
| 20260503214347 | 13 | 256 | 9.7 | 12.9 | 0.00 | 0.00 | 0.00 | 35 | 1011.4 |
| 20260503213844 | 12 | 256 | 8.0 | 12.9 | 0.00 | 0.00 | 0.00 | 36 | 1011.3 |
| 20260503213342 | 12 | 300 | 9.7 | 14.5 | 0.00 | 0.00 | 0.00 | 36 | 1011.5 |
| 20260503212838 | 12 | 295 | 3.2 | 12.9 | 0.00 | 0.00 | 0.00 | 37 | 1011.4 |
| 20260503212336 | 12 | 272 | 4.8 | 12.9 | 0.00 | 0.00 | 0.00 | 39 | 1011.2 |
| 20260503211833 | 13 | 237 | 8.0 | 12.9 | 0.00 | 0.00 | 0.00 | 34 | 1011.3 |
| 20260503211330 | 13 | 229 | 4.8 | 14.5 | 0.00 | 0.00 | 0.00 | 33 | 1011.3 |
| 20260503210825 | 12 | 272 | 3.2 | 19.3 | 0.00 | 0.00 | 0.00 | 34 | 1011.2 |
| 20260503210323 | 13 | 266 | 4.8 | 17.7 | 0.00 | 0.00 | 0.00 | 35 | 1011.3 |
| 20260503205817 | 12 | 224 | 4.8 | 33.8 | 0.00 | 0.00 | 0.00 | 36 | 1011.2 |
| 20260503205314 | 13 | 271 | 4.8 | 16.1 | 0.00 | 0.00 | 0.00 | 34 | 1011.3 |
| 20260503204811 | 13 | 322 | 6.4 | 14.5 | 0.00 | 0.00 | 0.00 | 33 | 1011.2 |
| 20260503204309 | 13 | 290 | 4.8 | 11.3 | 0.00 | 0.00 | 0.00 | 36 | 1011.2 |
| 20260503203806 | 13 | 240 | 9.7 | 11.3 | 0.00 | 0.00 | 0.00 | 34 | 1011.2 |
| 20260503203303 | 13 | 244 | 9.7 | 14.5 | 0.00 | 0.00 | 0.00 | 36 | 1011.2 |
| 20260503202800 | 13 | 298 | 6.4 | 9.7 | 0.00 | 0.00 | 0.00 | 35 | 1011.4 |
| 20260503202258 | 12 | 244 | 14.5 | 19.3 | 0.00 | 0.00 | 0.00 | 32 | 1011.4 |
| 20260503201755 | 13 | 235 | 6.4 | 24.1 | 0.00 | 0.00 | 0.00 | 35 | 1011.3 |
| 20260503201253 | 13 | 252 | 8.0 | 14.5 | 0.00 | 0.00 | 0.00 | 33 | 1011.3 |
| 20260503200750 | 13 | 259 | 6.4 | 8.0 | 0.00 | 0.00 | 0.00 | 36 | 1011.5 |
| 20260503200245 | 11 | 227 | 4.8 | 19.3 | 0.00 | 0.00 | 0.00 | 33 | 1011.5 |
| 20260503195743 | 12 | 284 | 3.2 | 8.0 | 0.00 | 0.00 | 0.00 | 37 | 1011.5 |
| 20260503195239 | 12 | 242 | 14.5 | 17.7 | 0.00 | 0.00 | 0.00 | 33 | 1011.7 |
| 20260503194737 | 11 | 215 | 9.7 | 17.7 | 0.00 | 0.00 | 0.00 | 34 | 1011.9 |
| 20260503194232 | 12 | 234 | 9.7 | 22.5 | 0.00 | 0.00 | 0.00 | 36 | 1011.6 |
| 20260503193729 | 12 | 245 | 12.9 | 19.3 | 0.00 | 0.00 | 0.00 | 33 | 1011.7 |
| 20260503193225 | 12 | 257 | 9.7 | 25.7 | 0.00 | 0.00 | 0.00 | 35 | 1011.7 |
| 20260503192721 | 12 | 242 | 14.5 | 20.9 | 0.00 | 0.00 | 0.00 | 33 | 1011.8 |
| 20260503192216 | 12 | 246 | 9.7 | 24.1 | 0.00 | 0.00 | 0.00 | 36 | 1011.7 |
| 20260503191713 | 12 | 240 | 16.1 | 20.9 | 0.00 | 0.00 | 0.00 | 33 | 1011.8 |
| 20260503191211 | 12 | 342 | 11.3 | 14.5 | 0.00 | 0.00 | 0.00 | 35 | 1012.1 |
| 20260503190707 | 12 | 291 | 8.0 | 19.3 | 0.00 | 0.00 | 0.00 | 35 | 1012.0 |
| 20260503190204 | 12 | 239 | 24.1 | 24.1 | 0.00 | 0.00 | 0.00 | 34 | 1012.0 |
| 20260503185701 | 12 | 307 | 6.4 | 35.4 | 0.00 | 0.00 | 0.00 | 38 | 1011.9 |
| 20260503185156 | 11 | 254 | 9.7 | 19.3 | 0.00 | 0.00 | 0.00 | 35 | 1011.9 |
| 20260503184651 | 12 | 8 | 4.8 | 9.7 | 0.00 | 0.00 | 0.00 | 36 | 1012.0 |
| 20260503184148 | 12 | 245 | 20.9 | 24.1 | 0.00 | 0.00 | 0.00 | 36 | 1012.1 |
| 20260503183644 | 11 | 98 | 12.9 | 14.5 | 0.00 | 0.00 | 0.00 | 38 | 1012.2 |
| 20260503183142 | 11 | 260 | 4.8 | 20.9 | 0.00 | 0.00 | 0.00 | 34 | 1012.1 |
| 20260503182640 | 11 | 250 | 17.7 | 20.9 | 0.00 | 0.00 | 0.00 | 36 | 1012.4 |
| 20260503182139 | 10 | 259 | 8.0 | 17.7 | 0.00 | 0.00 | 0.00 | 36 | 1012.2 |
| 20260503181635 | 11 | 241 | 14.5 | 19.3 | 0.00 | 0.00 | 0.00 | 40 | 1012.1 |
| 20260503181132 | 11 | 347 | 3.2 | 16.1 | 0.00 | 0.00 | 0.00 | 38 | 1012.2 |
| 20260503180628 | 11 | 282 | 4.8 | 19.3 | 0.00 | 0.00 | 0.00 | 35 | 1012.4 |
| 20260503180126 | 11 | 255 | 9.7 | 17.7 | 0.00 | 0.00 | 0.00 | 35 | 1012.4 |
| 20260503175623 | 11 | 110 | 3.2 | 11.3 | 0.00 | 0.00 | 0.00 | 37 | 1012.4 |
| 20260503175120 | 10 | 224 | 14.5 | 17.7 | 0.00 | 0.00 | 0.00 | 40 | 1012.5 |
| 20260503174617 | 10 | 246 | 12.9 | 17.7 | 0.00 | 0.00 | 0.00 | 38 | 1012.5 |
| 20260503174114 | 10 | 62 | 6.4 | 22.5 | 0.00 | 0.00 | 0.00 | 42 | 1012.6 |
| 20260503173609 | 10 | 316 | 8.0 | 9.7 | 0.00 | 0.00 | 0.00 | 38 | 1012.8 |
| 20260503173105 | 10 | 276 | 3.2 | 19.3 | 0.00 | 0.00 | 0.00 | 46 | 1012.6 |
| 20260503172603 | 10 | 279 | 6.4 | 14.5 | 0.00 | 0.00 | 0.00 | 44 | 1012.8 |
| 20260503172100 | 10 | 233 | 11.3 | 19.3 | 0.00 | 0.00 | 0.00 | 38 | 1012.8 |
| 20260503171556 | 11 | 252 | 9.7 | 9.7 | 0.00 | 0.00 | 0.00 | 45 | 1012.5 |
| 20260503171054 | 9 | 287 | 3.2 | 14.5 | 0.00 | 0.00 | 0.00 | 41 | 1012.7 |
| 20260503170550 | 10 | 244 | 8.0 | 16.1 | 0.00 | 0.00 | 0.00 | 39 | 1012.7 |
| 20260503150942 | 7 | 232 | 14.5 | 17.7 | 0.00 | 0.00 | 0.00 | 53 | 1013.5 |
| 20260503150439 | 7 | 243 | 11.3 | 12.9 | 0.00 | 0.00 | 0.00 | 53 | 1013.5 |
| 20260503131331 | 5 | 229 | 17.7 | 20.9 | 0.00 | 0.00 | 0.00 | 61 | 1013.6 |
| 20260503130824 | 5 | 333 | 3.2 | 6.4 | 0.00 | 0.00 | 0.00 | 64 | 1013.7 |
| 20260503130321 | 5 | 280 | 8.0 | 11.3 | 0.00 | 0.00 | 0.00 | 65 | 1013.6 |